Rome, OR

10:52 AM MST on December 16, 2017 (GMT -0700)
Rome State

Weather History for KREO - September, 2013

Change the Weather History Date:

Saturday, September 28, 2013

  Actual Average Record
Temperature  
Mean Temperature 57 °F 55 °F  
Max Temperature 70 °F 74 °F 95 °F (1963)
Min Temperature 44 °F 36 °F 31 °F (1999)
Degree Days  
Heating Degree Days 8 10  
Month to date heating degree days 133 161  
Since 1 July heating degree days 133 202  
Cooling Degree Days 0 0  
Month to date cooling degree days 78 39  
Year to date cooling degree days 878 505  
Growing Degree Days 8 (Base 50)    
Moisture  
Dew Point 36 °F    
Average Humidity 49    
Maximum Humidity 66    
Minimum Humidity 31    
Precipitation  
Precipitation 0.00 in 0.02 in 0.25 in (1962)
Month to date precipitation 1.77 0.36  
Year to date precipitation 5.00 6.69  
Sea Level Pressure  
Sea Level Pressure 29.95 in    
Wind  
Wind Speed 14 mph (South)    
Max Wind Speed 24 mph    
Max Gust Speed 31 mph    
T = Trace of Precipitation, MM = Missing Value Source: NWS Daily Summary

Daily Weather History Graph

Daily Weather History Graph

Search for Another Location

Airport or City:

Trip Planner

Search our weather history database for the weather conditions in past years. The results will help you decide how hot, cold, wet, or windy it might be!

Date:

Astronomy

Sep. 28, 2013 Rise Set
Actual Time 6:45 AM PDT 6:37 PM PDT
Civil Twilight 6:17 AM PDT 7:05 PM PDT
Nautical Twilight 5:44 AM PDT 7:38 PM PDT
Astronomical Twilight 5:11 AM PDT 8:11 PM PDT
Moon 12:30 AM PDT (9/28) 3:05 PM PDT (9/28)
Length of Visible Light 12h 47m
Length of Day
11h 51m
Waning Crescent, 35% of the Moon is Illuminated
Sep 28
Waning Crescent
Oct 4
New
Oct 11
First Quarter
Oct 18
Full
Oct 26
Last Quarter

Hourly Weather History & Observations

Time (PDT) Temp. Windchill Dew Point Humidity Pressure Visibility Wind Dir Wind Speed Gust Speed Precip Events Conditions
12:52 AM 48.0 °F - 37.0 °F 66% 30.04 in - SE 13.8 mph - N/A   Unknown
1:52 AM 48.0 °F - 36.0 °F 63% 30.05 in - South 9.2 mph - N/A   Unknown
2:52 AM 48.0 °F - 35.1 °F 61% 30.04 in - SSW 5.8 mph - N/A   Unknown
3:52 AM 46.0 °F 41.4 °F 35.1 °F 66% 30.03 in - SSE 9.2 mph - N/A   Unknown
4:52 AM 46.0 °F 39.9 °F 33.1 °F 61% 30.02 in - SE 13.8 mph - N/A   Unknown
5:52 AM 46.0 °F 39.9 °F 32.0 °F 58% 30.02 in - SE 13.8 mph - N/A   Unknown
6:52 AM 45.0 °F 37.9 °F 32.0 °F 60% 30.04 in - SE 16.1 mph - N/A   Unknown
7:52 AM 48.9 °F - 33.1 °F 54% 30.04 in - SSE 13.8 mph - N/A   Unknown
8:52 AM 54.0 °F - 37.0 °F 53% 30.04 in - Calm Calm - N/A   Unknown
9:52 AM 60.1 °F - 34.0 °F 38% 30.02 in - South 17.3 mph - N/A   Unknown
10:52 AM 62.1 °F - 36.0 °F 38% 30.00 in - South 19.6 mph 26.5 mph N/A   Unknown
11:52 AM 66.9 °F - 35.1 °F 31% 29.97 in - SSW 17.3 mph 25.3 mph N/A   Unknown
12:52 PM 66.9 °F - 35.1 °F 31% 29.95 in - SSW 16.1 mph 26.5 mph N/A   Unknown
1:52 PM 70.0 °F - 37.0 °F 30% 29.94 in - SSW 18.4 mph 24.2 mph N/A   Unknown
2:52 PM 66.0 °F - 37.0 °F 34% 29.93 in - South 16.1 mph 21.9 mph N/A   Unknown
3:52 PM 66.9 °F - 35.1 °F 31% 29.92 in - SW 18.4 mph 29.9 mph N/A   Unknown
4:52 PM 66.0 °F - 36.0 °F 33% 29.91 in - South 16.1 mph 25.3 mph N/A   Unknown
5:52 PM 63.0 °F - 37.9 °F 40% 29.89 in - South 12.7 mph - N/A   Unknown
6:52 PM 62.1 °F - 39.0 °F 43% 29.86 in - SSE 16.1 mph - N/A   Unknown
7:52 PM 63.0 °F - 37.9 °F 40% 29.84 in - South 18.4 mph - N/A   Unknown
8:52 PM 61.0 °F - 39.9 °F 46% 29.83 in - South 10.4 mph - N/A   Unknown
9:52 PM 62.1 °F - 39.9 °F 44% 29.81 in - South 15.0 mph - N/A   Unknown
10:52 PM 60.1 °F - 39.9 °F 47% 29.79 in - South 13.8 mph - N/A   Unknown
11:52 PM 61.0 °F - 37.9 °F 42% 29.77 in - South 8.1 mph - N/A   Unknown